Terug naar catalogus

DELTA 1 DEB

ActiefHEO
NORAD 5975·DEBRIS·🇺🇸 United States

Gelanceerd Mar 20, 1970 vanaf Cape Canaveral Space Force Station

Loading…

Volgende Passages (komende 24 uur)

TLE

VersSource: Space-Track

Epoch: Sep 14, 2026, 02:49 UTC

1 05975U 70021C   26257.11784866  .00003586  00000-0  12845-2 0  9993
2 05975  25.3650 181.4775 6513145 101.3073 333.2966  3.27761682375832

Volg DELTA 1 DEB in realtime met AllMySat

Download on the App Store